Time,TemperatureF,DewpointF,PressureIn,WindDirection,WindDirectionDegrees,WindSpeedMPH,WindSpeedGustMPH,Humidity,HourlyPrecipIn,Conditions,Clouds,dailyrainin,SolarRadiationWatts/m^2,SoftwareType,DateUTC
2013-08-20 00:03:00,73.0,72.0,-100.00,East,100,0.0,0.0,97,0.00,,,0.85,0.000000,,2013-08-20 04:03:00,
2013-08-20 00:11:00,73.0,72.0,-100.00,NNE,26,0.0,2.0,97,0.00,,,0.85,0.000000,,2013-08-20 04:11:00,
2013-08-20 00:43:00,73.0,72.0,-100.00,NNE,26,0.0,2.0,97,0.00,,,0.85,0.000000,,2013-08-20 04:43:00,
2013-08-20 00:54:00,73.0,72.0,-100.00,NNE,26,0.0,2.0,97,0.00,,,0.85,0.000000,,2013-08-20 04:54:00,
2013-08-20 01:02:00,73.0,72.0,-100.00,NNE,26,0.0,2.0,97,0.00,,,0.85,0.000000,,2013-08-20 05:02:00,
2013-08-20 01:11:00,73.0,72.0,-100.00,East,99,0.0,2.0,97,0.00,,,0.85,0.000000,,2013-08-20 05:11:00,
2013-08-20 01:43:00,73.0,72.0,-100.00,East,99,0.0,2.0,97,0.00,,,0.85,0.000000,,2013-08-20 05:43:00,
2013-08-20 01:52:00,73.0,72.0,-100.00,East,99,0.0,2.0,97,0.00,,,0.85,0.000000,,2013-08-20 05:52:00,
2013-08-20 02:02:00,73.0,72.0,-100.00,East,99,0.0,2.0,97,0.00,,,0.85,0.000000,,2013-08-20 06:02:00,
2013-08-20 02:11:00,73.0,72.0,-100.00,NE,40,0.0,2.0,97,0.00,,,0.85,0.000000,,2013-08-20 06:11:00,
2013-08-20 02:42:00,73.0,72.0,-100.00,NE,40,0.0,2.0,97,0.00,,,0.85,0.000000,,2013-08-20 06:42:00,
2013-08-20 02:52:00,73.0,72.0,-100.00,NE,40,0.0,2.0,97,0.00,,,0.85,0.000000,,2013-08-20 06:52:00,
2013-08-20 03:01:00,73.0,72.0,-100.00,NE,40,0.0,2.0,97,0.00,,,0.85,0.000000,,2013-08-20 07:01:00,
2013-08-20 03:11:00,73.0,72.0,-100.00,NNW,329,0.0,2.0,97,0.00,,,0.85,0.000000,,2013-08-20 07:11:00,
2013-08-20 03:42:00,73.0,72.0,-100.00,NNW,329,0.0,2.0,97,0.00,,,0.85,0.000000,,2013-08-20 07:42:00,
2013-08-20 03:52:00,73.0,72.0,-100.00,NNW,329,0.0,2.0,97,0.00,,,0.85,0.000000,,2013-08-20 07:52:00,
2013-08-20 04:02:00,73.0,72.0,-100.00,NNW,329,0.0,2.0,97,0.00,,,0.85,0.000000,,2013-08-20 08:02:00,
2013-08-20 04:11:00,73.0,72.0,-100.00,NW,311,0.0,3.0,97,0.00,,,0.85,0.000000,,2013-08-20 08:11:00,
2013-08-20 04:42:00,73.0,72.0,-100.00,NW,311,0.0,3.0,97,0.00,,,0.85,0.000000,,2013-08-20 08:42:00,
2013-08-20 04:52:00,73.0,72.0,-100.00,NW,311,0.0,3.0,97,0.00,,,0.85,0.000000,,2013-08-20 08:52:00,
2013-08-20 05:01:00,73.0,72.0,-100.00,NW,311,0.0,3.0,97,0.00,,,0.85,0.000000,,2013-08-20 09:01:00,
2013-08-20 05:11:00,72.0,71.0,-100.00,NE,34,0.0,1.0,97,0.01,,,0.86,0.000000,,2013-08-20 09:11:00,
2013-08-20 05:42:00,72.0,71.0,-100.00,NE,34,0.0,1.0,97,0.01,,,0.86,0.000000,,2013-08-20 09:42:00,
2013-08-20 05:53:00,72.0,71.0,-100.00,NE,34,0.0,1.0,97,0.01,,,0.86,0.000000,,2013-08-20 09:53:00,
2013-08-20 06:04:00,72.0,71.0,-100.00,NE,34,0.0,1.0,97,0.01,,,0.86,0.000000,,2013-08-20 10:04:00,
2013-08-20 06:11:00,74.0,73.0,-100.00,NE,56,0.0,2.0,97,0.00,,,0.86,0.000000,,2013-08-20 10:11:00,
2013-08-20 06:43:00,74.0,73.0,-100.00,NE,56,0.0,2.0,97,0.00,,,0.86,0.000000,,2013-08-20 10:43:00,
2013-08-20 06:52:00,74.0,73.0,-100.00,NE,56,0.0,2.0,97,0.00,,,0.86,0.000000,,2013-08-20 10:52:00,
2013-08-20 07:02:00,74.0,73.0,-100.00,NE,56,0.0,2.0,97,0.00,,,0.86,0.000000,,2013-08-20 11:02:00,
2013-08-20 07:11:00,74.0,73.0,-100.00,ENE,57,0.0,3.0,98,0.00,,,0.86,1.000000,,2013-08-20 11:11:00,
2013-08-20 07:42:00,74.0,73.0,-100.00,ENE,57,0.0,3.0,98,0.00,,,0.86,1.000000,,2013-08-20 11:42:00,
2013-08-20 07:52:00,74.0,73.0,-100.00,ENE,57,0.0,3.0,98,0.00,,,0.86,1.000000,,2013-08-20 11:52:00,
2013-08-20 08:01:00,74.0,73.0,-100.00,ENE,57,0.0,3.0,98,0.00,,,0.86,1.000000,,2013-08-20 12:01:00,
2013-08-20 08:11:00,75.0,74.0,-100.00,NNE,13,0.0,2.0,97,0.00,,,0.86,30.000000,,2013-08-20 12:11:00,
2013-08-20 08:42:00,75.0,74.0,-100.00,NNE,13,0.0,2.0,97,0.00,,,0.86,30.000000,,2013-08-20 12:42:00,
2013-08-20 08:52:00,75.0,74.0,-100.00,NNE,13,0.0,2.0,97,0.00,,,0.86,30.000000,,2013-08-20 12:52:00,
2013-08-20 09:01:00,75.0,74.0,-100.00,NNE,13,0.0,2.0,97,0.00,,,0.86,30.000000,,2013-08-20 13:01:00,
2013-08-20 09:11:00,81.0,77.0,-100.00,East,97,2.0,5.0,89,0.00,,,0.86,147.000000,,2013-08-20 13:11:00,
2013-08-20 09:42:00,81.0,77.0,-100.00,East,97,2.0,5.0,89,0.00,,,0.86,147.000000,,2013-08-20 13:42:00,
2013-08-20 09:52:00,81.0,77.0,-100.00,East,97,2.0,5.0,89,0.00,,,0.86,147.000000,,2013-08-20 13:52:00,
2013-08-20 10:02:00,81.0,77.0,-100.00,East,97,2.0,5.0,89,0.00,,,0.86,147.000000,,2013-08-20 14:02:00,
2013-08-20 10:11:00,86.0,77.0,-100.00,NE,52,4.0,8.0,74,0.00,,,0.86,463.000000,,2013-08-20 14:11:00,
2013-08-20 10:42:00,86.0,77.0,-100.00,NE,52,4.0,8.0,74,0.00,,,0.86,463.000000,,2013-08-20 14:42:00,
2013-08-20 10:52:00,86.0,77.0,-100.00,NE,52,4.0,8.0,74,0.00,,,0.86,463.000000,,2013-08-20 14:52:00,
2013-08-20 11:02:00,86.0,77.0,-100.00,NE,52,4.0,8.0,74,0.00,,,0.86,463.000000,,2013-08-20 15:02:00,
2013-08-20 11:11:00,88.0,74.0,-100.00,ENE,74,5.0,11.0,64,0.00,,,0.86,635.000000,,2013-08-20 15:11:00,
2013-08-20 11:43:00,88.0,74.0,-100.00,ENE,74,5.0,11.0,64,0.00,,,0.86,635.000000,,2013-08-20 15:43:00,
2013-08-20 11:54:00,88.0,74.0,-100.00,ENE,74,5.0,11.0,64,0.00,,,0.86,635.000000,,2013-08-20 15:54:00,
2013-08-20 12:04:00,88.0,74.0,-100.00,ENE,74,5.0,11.0,64,0.00,,,0.86,635.000000,,2013-08-20 16:04:00,
2013-08-20 12:11:00,90.0,74.0,-100.00,East,101,4.0,9.0,59,0.00,,,0.86,562.000000,,2013-08-20 16:11:00,
2013-08-20 12:42:00,90.0,74.0,-100.00,East,101,4.0,9.0,59,0.00,,,0.86,562.000000,,2013-08-20 16:42:00,
2013-08-20 12:53:00,90.0,74.0,-100.00,East,101,4.0,9.0,59,0.00,,,0.86,562.000000,,2013-08-20 16:53:00,
2013-08-20 13:03:00,90.0,74.0,-100.00,East,101,4.0,9.0,59,0.00,,,0.86,562.000000,,2013-08-20 17:03:00,
2013-08-20 13:11:00,91.0,73.0,-100.00,East,87,4.0,10.0,55,0.00,,,0.86,677.000000,,2013-08-20 17:11:00,
2013-08-20 13:43:00,91.0,73.0,-100.00,East,87,4.0,10.0,55,0.00,,,0.86,677.000000,,2013-08-20 17:43:00,
2013-08-20 13:52:00,91.0,73.0,-100.00,East,87,4.0,10.0,55,0.00,,,0.86,677.000000,,2013-08-20 17:52:00,
2013-08-20 14:02:00,91.0,73.0,-100.00,East,87,4.0,10.0,55,0.00,,,0.86,677.000000,,2013-08-20 18:02:00,
2013-08-20 14:11:00,88.0,73.0,-100.00,ENE,76,3.0,8.0,61,0.00,,,0.86,354.000000,,2013-08-20 18:11:00,
2013-08-20 14:43:00,88.0,73.0,-100.00,ENE,76,3.0,8.0,61,0.00,,,0.86,354.000000,,2013-08-20 18:43:00,
2013-08-20 14:52:00,88.0,73.0,-100.00,ENE,76,3.0,8.0,61,0.00,,,0.86,354.000000,,2013-08-20 18:52:00,
2013-08-20 15:01:00,88.0,73.0,-100.00,ENE,76,3.0,8.0,61,0.00,,,0.86,354.000000,,2013-08-20 19:01:00,
2013-08-20 15:11:00,82.0,74.0,-100.00,SSW,198,1.0,9.0,76,0.00,,,0.86,114.000000,,2013-08-20 19:11:00,
2013-08-20 15:42:00,82.0,74.0,-100.00,SSW,198,1.0,9.0,76,0.00,,,0.86,114.000000,,2013-08-20 19:42:00,
2013-08-20 15:53:00,82.0,74.0,-100.00,SSW,198,1.0,9.0,76,0.00,,,0.86,114.000000,,2013-08-20 19:53:00,
2013-08-20 16:03:00,82.0,74.0,-100.00,SSW,198,1.0,9.0,76,0.00,,,0.86,114.000000,,2013-08-20 20:03:00,
2013-08-20 16:11:00,86.0,75.0,-100.00,WNW,298,1.0,5.0,71,0.00,,,-99.99,271.000000,,2013-08-20 20:11:00,
2013-08-20 16:42:00,86.0,75.0,-100.00,WNW,298,1.0,5.0,71,0.00,,,-99.99,271.000000,,2013-08-20 20:42:00,
2013-08-20 16:52:00,86.0,75.0,-100.00,WNW,298,1.0,5.0,71,0.00,,,-99.99,271.000000,,2013-08-20 20:52:00,
2013-08-20 17:03:00,86.0,75.0,-100.00,WNW,298,1.0,5.0,71,0.00,,,-99.99,271.000000,,2013-08-20 21:03:00,
2013-08-20 17:11:00,87.0,76.0,-100.00,NNE,28,1.0,4.0,70,0.00,,,0.56,249.000000,,2013-08-20 21:11:00,
2013-08-20 18:11:00,88.0,77.0,-100.00,NNE,30,0.0,3.0,69,0.00,,,-99.99,216.000000,,2013-08-20 22:11:00,
2013-08-20 18:42:00,88.0,77.0,-100.00,NNE,30,0.0,3.0,69,0.00,,,-99.99,216.000000,,2013-08-20 22:42:00,
2013-08-20 18:54:00,88.0,77.0,-100.00,NNE,30,0.0,3.0,69,0.00,,,-99.99,216.000000,,2013-08-20 22:54:00,
2013-08-20 19:03:00,88.0,77.0,-100.00,NNE,30,0.0,3.0,69,0.00,,,-99.99,216.000000,,2013-08-20 23:03:00,
2013-08-20 19:11:00,82.0,76.0,-100.00,ENE,76,0.0,8.0,81,0.00,,,0.01,90.000000,,2013-08-20 23:11:00,
2013-08-20 19:43:00,82.0,76.0,-100.00,ENE,76,0.0,8.0,81,0.00,,,0.01,90.000000,,2013-08-20 23:43:00,
2013-08-20 19:53:00,82.0,76.0,-100.00,ENE,76,0.0,8.0,81,0.00,,,0.01,90.000000,,2013-08-20 23:53:00,
2013-08-20 20:02:00,82.0,76.0,-100.00,ENE,76,0.0,8.0,81,0.00,,,0.01,90.000000,,2013-08-21 00:02:00,
2013-08-20 20:11:00,79.0,76.0,-100.00,ENE,69,0.0,1.0,91,0.00,,,0.01,13.000000,,2013-08-21 00:11:00,
2013-08-20 20:42:00,79.0,76.0,-100.00,ENE,69,0.0,1.0,91,0.00,,,0.01,13.000000,,2013-08-21 00:42:00,
2013-08-20 20:52:00,79.0,76.0,-100.00,ENE,69,0.0,1.0,91,0.00,,,0.01,13.000000,,2013-08-21 00:52:00,
2013-08-20 21:02:00,79.0,76.0,-100.00,ENE,69,0.0,1.0,91,0.00,,,0.01,13.000000,,2013-08-21 01:02:00,
2013-08-20 21:11:00,77.0,75.0,-100.00,ENE,71,0.0,1.0,95,0.00,,,0.01,0.000000,,2013-08-21 01:11:00,
2013-08-20 21:42:00,77.0,75.0,-100.00,ENE,71,0.0,1.0,95,0.00,,,0.01,0.000000,,2013-08-21 01:42:00,
2013-08-20 21:52:00,77.0,75.0,-100.00,ENE,71,0.0,1.0,95,0.00,,,0.01,0.000000,,2013-08-21 01:52:00,
2013-08-20 22:02:00,77.0,75.0,-100.00,ENE,71,0.0,1.0,95,0.00,,,0.01,0.000000,,2013-08-21 02:02:00,
2013-08-20 22:11:00,76.0,75.0,-100.00,SE,133,0.0,0.0,96,0.00,,,0.01,0.000000,,2013-08-21 02:11:00,
2013-08-20 22:42:00,76.0,75.0,-100.00,SE,133,0.0,0.0,96,0.00,,,0.01,0.000000,,2013-08-21 02:42:00,
2013-08-20 22:52:00,76.0,75.0,-100.00,SE,133,0.0,0.0,96,0.00,,,0.01,0.000000,,2013-08-21 02:52:00,
2013-08-20 23:02:00,76.0,75.0,-100.00,SE,133,0.0,0.0,96,0.00,,,0.01,0.000000,,2013-08-21 03:02:00,
2013-08-20 23:11:00,77.0,76.0,-100.00,NE,40,0.0,1.0,97,0.00,,,0.01,0.000000,,2013-08-21 03:11:00,
2013-08-20 23:44:00,77.0,76.0,-100.00,NE,40,0.0,1.0,97,0.00,,,0.01,0.000000,,2013-08-21 03:44:00,
2013-08-20 23:55:00,77.0,76.0,-100.00,NE,40,0.0,1.0,97,0.00,,,0.01,0.000000,,2013-08-21 03:55:00,